DIWATA-2B

Last updated on Tue Sep 16 2025 00:03:09 GMT+0000 (Coordinated Universal Time)

1 43678U 18084H 25258.61195200 .00001500 00000+0 12991-3 0 9995 2 43678 98.1089 78.5421 0008336 328.5385 31.5337 14.98758545375065
UTC large
Height (km)
Speed (km/s)
/
Latitude / Longitude
Inclination (degrees)
Orbital Period (minutes)
Azimuth
Elevation
Range (km)
Doppler Factor

Next 0 passes for location: London (51.5072 / 0.1276)

Sorry there are no passes over London.